| time (UTC) | temp C | wind direction | speed KPH | gust KPH | rain 1hr cm | rain 24hr cm | rain mn cm | humidity % | barometer mb |
| 20260503184502 | 13 | 200 | 1.6 | 14.5 | 0.00 | 0.00 | 0.00 | 49 | 1015.0 |
| 20260503183111 | 13 | 244 | 1.6 | 14.5 | 0.00 | 0.00 | 0.00 | 47 | 1015.5 |
| 20260503181609 | 13 | 211 | 3.2 | 14.5 | 0.00 | 0.00 | 0.00 | 47 | 1015.8 |
| 20260503180058 | 14 | 232 | 4.8 | 16.1 | 0.00 | 0.00 | 0.00 | 44 | 1015.9 |
| 20260503174556 | 14 | 238 | 6.4 | 20.9 | 0.00 | 0.00 | 0.00 | 44 | 1016.3 |
| 20260503173100 | 14 | 244 | 4.8 | 19.3 | 0.00 | 0.00 | 0.00 | 45 | 1016.4 |
| 20260503171553 | 14 | 238 | 4.8 | 19.3 | 0.00 | 0.00 | 0.00 | 43 | 1016.5 |
| 20260503081522 | 3 | 258 | 0.0 | 0.0 | 0.00 | 0.00 | 0.00 | 79 | 1017.6 |
| 20260503071517 | 2 | 265 | 0.0 | 0.0 | 0.00 | 0.00 | 0.00 | 83 | 1017.5 |
| 20260503054514 | 2 | 324 | 0.0 | 0.0 | 0.00 | 0.00 | 0.00 | 84 | 1018.1 |
| 20260503053007 | 2 | 324 | 0.0 | 0.0 | 0.00 | 0.00 | 0.00 | 84 | 1018.2 |
| 20260503051506 | 2 | 324 | 0.0 | 0.0 | 0.00 | 0.00 | 0.00 | 84 | 1018.2 |
| 20260503050017 | 2 | 324 | 0.0 | 0.0 | 0.00 | 0.00 | 0.00 | 83 | 1018.3 |
| 20260503044504 | 2 | 324 | 0.0 | 0.0 | 0.00 | 0.00 | 0.00 | 82 | 1018.2 |
| 20260503043002 | 3 | 324 | 0.0 | 0.0 | 0.00 | 0.00 | 0.00 | 82 | 1018.1 |
| 20260503041600 | 3 | 324 | 0.0 | 0.0 | 0.00 | 0.00 | 0.00 | 81 | 1018.1 |
| 20260503034558 | 3 | 324 | 0.0 | 0.0 | 0.00 | 0.00 | 0.00 | 78 | 1018.2 |
| 20260503033129 | 4 | 324 | 0.0 | 0.0 | 0.00 | 0.00 | 0.00 | 77 | 1018.3 |
| 20260503031600 | 4 | 324 | 0.0 | 0.0 | 0.00 | 0.00 | 0.00 | 76 | 1018.3 |
| 20260503030107 | 5 | 324 | 0.0 | 0.0 | 0.00 | 0.00 | 0.00 | 74 | 1018.3 |
| 20260503024622 | 5 | 324 | 0.0 | 0.0 | 0.00 | 0.00 | 0.00 | 73 | 1018.2 |
| 20260503023058 | 5 | 324 | 0.0 | 0.0 | 0.00 | 0.00 | 0.00 | 71 | 1018.1 |
| 20260503021600 | 6 | 324 | 0.0 | 0.0 | 0.00 | 0.00 | 0.00 | 67 | 1018.1 |
| 20260503020054 | 6 | 324 | 0.0 | 0.0 | 0.00 | 0.00 | 0.00 | 65 | 1017.9 |
| 20260503014554 | 7 | 324 | 0.0 | 0.0 | 0.00 | 0.00 | 0.00 | 66 | 1017.8 |
| 20260503013054 | 8 | 324 | 0.0 | 0.0 | 0.00 | 0.00 | 0.00 | 64 | 1017.8 |
| 20260503011559 | 8 | 324 | 0.0 | 0.0 | 0.00 | 0.00 | 0.00 | 55 | 1017.7 |
| 20260503010152 | 8 | 324 | 0.0 | 0.0 | 0.00 | 0.00 | 0.00 | 51 | 1017.6 |
| 20260503004552 | 8 | 324 | 0.0 | 0.0 | 0.00 | 0.00 | 0.00 | 47 | 1017.5 |
| 20260503003052 | 9 | 310 | 0.0 | 6.4 | 0.00 | 0.00 | 0.00 | 46 | 1017.5 |
| 20260503001600 | 10 | 311 | 0.0 | 3.2 | 0.00 | 0.00 | 0.00 | 45 | 1017.4 |
| 20260503000105 | 10 | 319 | 0.0 | 9.7 | 0.00 | 0.00 | 0.00 | 44 | 1017.3 |
| 20260502234606 | 10 | 307 | 1.6 | 9.7 | 0.00 | 0.00 | 0.00 | 43 | 1017.2 |
| 20260502233106 | 10 | 313 | 0.0 | 11.3 | 0.00 | 0.00 | 0.00 | 46 | 1017.1 |
| 20260502231602 | 10 | 5 | 0.0 | 6.4 | 0.00 | 0.00 | 0.00 | 47 | 1017.3 |
| 20260502230048 | 10 | 5 | 1.6 | 9.7 | 0.00 | 0.00 | 0.00 | 45 | 1017.4 |
| 20260502224547 | 10 | 343 | 1.6 | 14.5 | 0.00 | 0.00 | 0.00 | 43 | 1017.4 |
| 20260502223051 | 10 | 350 | 0.0 | 12.9 | 0.00 | 0.00 | 0.00 | 44 | 1017.4 |
| 20260502221559 | 10 | 355 | 1.6 | 11.3 | 0.00 | 0.00 | 0.00 | 45 | 1017.4 |
| 20260502220046 | 10 | 331 | 3.2 | 14.5 | 0.00 | 0.00 | 0.00 | 45 | 1017.4 |
| 20260502214545 | 10 | 338 | 3.2 | 19.3 | 0.00 | 0.00 | 0.00 | 44 | 1017.4 |
| 20260502213052 | 10 | 335 | 0.0 | 12.9 | 0.00 | 0.00 | 0.00 | 47 | 1017.3 |
| 20260502210045 | 10 | 329 | 8.0 | 16.1 | 0.00 | 0.00 | 0.00 | 44 | 1017.3 |
| 20260502204550 | 10 | 17 | 1.6 | 14.5 | 0.00 | 0.00 | 0.00 | 45 | 1017.4 |
| 20260502203053 | 10 | 11 | 4.8 | 16.1 | 0.00 | 0.00 | 0.00 | 47 | 1017.4 |
| 20260502201548 | 10 | 329 | 3.2 | 16.1 | 0.00 | 0.00 | 0.00 | 47 | 1017.4 |
| 20260502200043 | 11 | 5 | 8.0 | 22.5 | 0.00 | 0.00 | 0.00 | 44 | 1017.6 |
| 20260502194541 | 10 | 295 | 1.6 | 16.1 | 0.00 | 0.00 | 0.00 | 52 | 1017.6 |
| 20260502193041 | 10 | 349 | 4.8 | 12.9 | 0.00 | 0.00 | 0.00 | 49 | 1017.7 |
| 20260502191541 | 10 | 5 | 3.2 | 19.3 | 0.00 | 0.00 | 0.00 | 49 | 1017.8 |
| 20260502190039 | 10 | 360 | 3.2 | 14.5 | 0.00 | 0.00 | 0.00 | 46 | 1018.0 |